PGT2006 LTFJ-LTAI

Flight info

Callsign PGT2006
Flight time N/A
Altitude 37000
Route ROXUK UN617 ERVAG UT305 TEKDO UT35 BABSA
Aircraft A320/M-SDE3FGHIRWY/LB1

Departure

Time N/A
Airport Istanbul Sabiha Gökçen International Airport (LTFJ)

Arrival

Time 2026-05-04 20:10
Airport Antalya International Airport (LTAI)
Time Latitude Longitude Altitude Speed Heading
2026-05-04 19:50 37.72346 30.37107 22903 ft 369 kts 218°
2026-05-04 19:50 37.70208 30.35310 22751 ft 368 kts 218°
2026-05-04 19:50 37.68083 30.33516 22603 ft 367 kts 219°
2026-05-04 19:50 37.65973 30.31720 22454 ft 366 kts 219°
2026-05-04 19:51 37.63867 30.29918 22292 ft 365 kts 219°
2026-05-04 19:51 37.61658 30.28302 22160 ft 370 kts 208°
2026-05-04 19:51 37.59212 30.27270 22001 ft 374 kts 195°
2026-05-04 19:51 37.56623 30.26822 21855 ft 376 kts 189°
2026-05-04 19:52 37.54022 30.26477 21692 ft 376 kts 187°
2026-05-04 19:52 37.51418 30.26711 21430 ft 377 kts 163°
2026-05-04 19:52 37.49106 30.28215 21172 ft 374 kts 137°
2026-05-04 19:52 37.47441 30.30671 20919 ft 368 kts 119°
2026-05-04 19:53 37.45921 30.33218 20665 ft 371 kts 135°
2026-05-04 19:53 37.43728 30.34905 20413 ft 373 kts 159°
2026-05-04 19:53 37.41307 30.36080 20171 ft 373 kts 157°
2026-05-04 19:53 37.38922 30.37353 19923 ft 372 kts 155°
2026-05-04 19:54 37.36569 30.38680 19677 ft 370 kts 154°
2026-05-04 19:54 37.34227 30.40024 19430 ft 369 kts 154°
2026-05-04 19:54 37.31895 30.41359 19193 ft 368 kts 154°
2026-05-04 19:54 37.29563 30.42675 18954 ft 367 kts 155°
2026-05-04 19:55 37.27232 30.43969 18713 ft 366 kts 155°
2026-05-04 19:55 37.24905 30.45245 18474 ft 364 kts 155°
2026-05-04 19:55 37.22579 30.46507 18237 ft 363 kts 155°
2026-05-04 19:55 37.20263 30.47760 17964 ft 362 kts 155°
2026-05-04 19:56 37.17964 30.49009 17685 ft 359 kts 155°
2026-05-04 19:56 37.15679 30.50252 17421 ft 357 kts 155°
2026-05-04 19:56 37.13411 30.51489 17149 ft 354 kts 155°
2026-05-04 19:56 37.11161 30.52716 16887 ft 352 kts 155°
2026-05-04 19:57 37.08922 30.53936 16535 ft 351 kts 155°
2026-05-04 19:57 37.06672 30.55160 16112 ft 351 kts 156°
2026-05-04 19:57 37.04448 30.56369 15809 ft 347 kts 156°
2026-05-04 19:57 37.02237 30.57568 15461 ft 346 kts 156°
2026-05-04 19:58 37.00040 30.58760 15139 ft 343 kts 156°
2026-05-04 19:58 36.97855 30.59945 14821 ft 341 kts 156°
2026-05-04 19:58 36.95686 30.61121 14520 ft 338 kts 156°
2026-05-04 19:58 36.93563 30.62272 14156 ft 337 kts 156°
2026-05-04 19:59 36.91365 30.63464 13260 ft 352 kts 157°
2026-05-04 19:59 36.89080 30.64701 12247 ft 362 kts 157°
2026-05-04 19:59 36.86741 30.65954 11257 ft 369 kts 159°
2026-05-04 19:59 36.84247 30.66725 10413 ft 366 kts 175°
2026-05-04 20:00 36.81761 30.66705 9832 ft 350 kts 185°
2026-05-04 20:00 36.79376 30.66507 9203 ft 337 kts 185°
2026-05-04 20:00 36.77073 30.66318 8601 ft 327 kts 185°
2026-05-04 20:00 36.74836 30.66135 8009 ft 318 kts 185°
2026-05-04 20:01 36.72655 30.65957 7405 ft 311 kts 185°
2026-05-04 20:01 36.70519 30.65780 6872 ft 303 kts 185°
2026-05-04 20:01 36.68497 30.65616 6791 ft 279 kts 185°
2026-05-04 20:01 36.66634 30.65482 6731 ft 259 kts 180°
2026-05-04 20:02 36.64935 30.65913 6630 ft 242 kts 153°
2026-05-04 20:02 36.63599 30.67095 6474 ft 234 kts 128°
2026-05-04 20:02 36.62758 30.68803 6000 ft 231 kts 102°
2026-05-04 20:02 36.62436 30.70698 5645 ft 219 kts 85°
2026-05-04 20:03 36.62665 30.72497 5146 ft 205 kts 61°
2026-05-04 20:03 36.63398 30.73911 4732 ft 186 kts 38°
2026-05-04 20:03 36.64395 30.74794 4412 ft 168 kts 19°
2026-05-04 20:03 36.65423 30.75379 4125 ft 158 kts 19°
2026-05-04 20:04 36.66398 30.75940 3865 ft 151 kts 19°
2026-05-04 20:04 36.67309 30.76465 3708 ft 140 kts 18°
2026-05-04 20:04 36.68183 30.76971 3695 ft 138 kts 18°
2026-05-04 20:04 36.69052 30.77471 3640 ft 137 kts 18°
2026-05-04 20:05 36.69918 30.77961 3594 ft 136 kts 15°
2026-05-04 20:05 36.70831 30.78230 3537 ft 136 kts
2026-05-04 20:05 36.71767 30.78420 3420 ft 137 kts
2026-05-04 20:05 36.72707 30.78580 3259 ft 136 kts
2026-05-04 20:06 36.73651 30.78724 3078 ft 137 kts
2026-05-04 20:06 36.74593 30.78861 2895 ft 136 kts
2026-05-04 20:06 36.75533 30.78994 2712 ft 135 kts
2026-05-04 20:06 36.76466 30.79123 2531 ft 135 kts
2026-05-04 20:07 36.77396 30.79252 2346 ft 134 kts
2026-05-04 20:07 36.78321 30.79379 2168 ft 133 kts
2026-05-04 20:07 36.79244 30.79506 1986 ft 133 kts
2026-05-04 20:07 36.80164 30.79632 1803 ft 133 kts
2026-05-04 20:08 36.81088 30.79759 1616 ft 133 kts
2026-05-04 20:08 36.82009 30.79886 1443 ft 132 kts
2026-05-04 20:08 36.82921 30.80011 1255 ft 132 kts
2026-05-04 20:08 36.83827 30.80135 1061 ft 133 kts
2026-05-04 20:09 36.84748 30.80262 865 ft 133 kts
2026-05-04 20:09 36.85668 30.80388 681 ft 133 kts 359°
2026-05-04 20:09 36.86590 30.80515 514 ft 134 kts
2026-05-04 20:09 36.87508 30.80642 335 ft 130 kts 360°
2026-05-04 20:10 36.88381 30.80764 173 ft 119 kts
2026-05-04 20:10 36.89001 30.80848 174 ft 52 kts
2026-05-04 20:10 36.89181 30.80871 174 ft 14 kts
2026-05-04 20:10 36.89297 30.80891 174 ft 20 kts 12°
2026-05-04 20:11 36.89444 30.80907 175 ft 21 kts
2026-05-04 20:11 36.89582 30.80927 176 ft 19 kts
2026-05-04 20:11 36.89716 30.80945 176 ft 19 kts
2026-05-04 20:11 36.89847 30.80946 178 ft 18 kts 356°
2026-05-04 20:12 36.89962 30.80904 179 ft 17 kts 338°
2026-05-04 20:12 36.90063 30.80848 180 ft 15 kts 335°
2026-05-04 20:12 36.90083 30.80773 179 ft 12 kts 217°
2026-05-04 20:12 36.89999 30.80745 179 ft 12 kts 187°
2026-05-04 20:13 36.89956 30.80739 179 ft 5 kts 187°
2026-05-04 20:13 36.89930 30.80735 179 ft 0 kts 186°
2026-05-04 20:14 36.89860 30.80720 178 ft 33 kts 190°
2026-05-04 20:14 36.89765 30.80679 178 ft 10 kts 233°
2026-05-04 20:14 36.89752 30.80653 178 ft 1 kts 247°
2026-05-04 20:14 36.89765 30.80636 178 ft 1 kts 293°
2026-05-04 20:15 36.89760 30.80629 178 ft 2 kts 245°
2026-05-04 20:15 36.89756 30.80619 178 ft 1 kts 253°
2026-05-04 20:15 36.89765 30.80578 178 ft 7 kts 271°
2026-05-04 20:15 36.89766 30.80552 178 ft 0 kts 273°
2026-05-04 20:16 36.89713 30.80066 180 ft 0 kts 30°
2026-05-04 20:18 36.89713 30.80065 180 ft 0 kts 30°
2026-05-04 20:26 36.89712 30.80065 180 ft 0 kts 31°
2026-05-04 20:35 36.89712 30.80064 180 ft 0 kts 31°
2026-05-04 20:39 36.89711 30.80064 180 ft 0 kts 31°